Tracking 28790 objects as of 19-Apr-2024
HD Live streaming from Space Station
objects crossing your sky now

COSMOS 1275 DEB

Track COSMOS 1275 DEB now!
10-day predictions


NORAD ID: 13484
Int'l Code: 1981-053GG
Perigee: 879.0 km
Apogee: 929.6 km
Inclination: 82.9 °
Period: 102.9 minutes
Semi major axis: 7275 km
RCS: 0.0733 m2 (small)
Launch date: June 4, 1981
Source: Commonwealth of Independent States (former USSR) (CIS)
Launch site: PLESETSK MISSILE AND SPACE COMPLEX (PKMTR)

Note: This is SATELLITE DEBRIS
Your satellite tracking list
Your tracking list is empty




NASA's NSSDC Master Catalog

Two Line Element Set (TLE):
1 13484U 81053GE  24109.81046458  .00006024  00000-0  41354-2 0  9990
2 13484  82.9175 241.5199 0034754 128.9635 351.8644 13.99030128115286
Source of the keplerian elements: AFSPC